CAPE
119 107 88 52 47 23 29 19 8 4 6 9 6 0 0 0 0 0 0 0 0 0 0 0 0 0 0 0 0 0 0 0 0 16 35 4 0 0 0 0 0 0 0 0 0 0 0 0 0 0 0 0 0 0
86 117 87 56 45 5 28 28 4 2 4 9 10 7 6 6 0 0 0 0 0 0 0 0 0 0 0 0 0 0 0 2 6 2 2 2 0 0 0 0 0 0 0 1 0 0 0 0 0 0 0 0 0 0
0 71 92 57 37 32 39 16 8 5 7 9 16 21 24 25 0 0 0 0 0 0 0 0 0 0 0 0 0 0 0 1 2 0 1 7 1 12 5 0 0 0 0 0 0 0 0 0 0 0 0 0 0 0
0 0 69 62 41 32 31 19 1 8 9 13 13 27 29 34 0 0 0 0 0 0 0 0 0 0 0 0 0 0 0 0 0 1 6 0 0 1 5 9 6 4 0 0 0 0 0 0 0 0 0 0 0 0
0 0 44 71 39 21 29 6 10 12 7 13 11 38 42 49 1 0 0 0 0 0 0 0 0 0 0 0 0 0 0 0 0 2 11 26 15 22 0 1 0 0 4 1 1 0 0 0 0 0 0 0 0 0
10 0 81 44 1 1 25 4 17 9 13 8 21 45 44 43 0 0 0 0 0 0 0 0 0 0 0 0 0 0 0 0 0 1 27 23 15 48 1 0 0 0 0 0 0 0 0 0 0 0 0 0 0 0
32 16 31 53 23 23 14 25 21 16 9 15 40 53 44 0 0 0 0 0 0 0 0 0 0 0 0 0 0 0 0 0 0 1 13 0 31 25 49 12 0 0 2 0 0 0 0 0 0 0 0 0 0 0
19 42 2 26 40 16 11 24 17 26 25 41 49 46 8 0 0 0 0 0 0 0 0 0 0 0 0 0 0 0 0 0 1 0 4 15 0 10 10 0 0 0 0 0 0 0 0 0 0 0 0 0 0 0
52 14 0 1 19 10 3 24 29 43 48 48 58 33 0 0 0 0 11 2 0 0 0 0 0 0 0 0 0 0 0 0 0 0 0 7 16 11 0 0 0 0 0 0 0 1 0 0 0 0 0 0 0 0
33 10 0 8 4 15 37 32 45 46 43 6 0 0 0 0 0 0 0 0 0 9 17 1 0 0 0 0 0 0 0 0 0 0 0 2 0 0 0 0 0 0 0 0 0 2 0 0 0 0 0 0 0 0
19 9 2 2 12 33 20 37 40 12 0 0 0 0 0 0 0 0 0 0 0 0 1 0 0 0 0 0 0 0 0 0 8 0 0 2 0 0 0 0 0 0 0 0 0 0 0 0 0 0 0 0 0 0
27 33 35 42 28 20 25 19 0 0 0 0 0 0 0 0 0 0 0 0 0 0 0 0 0 0 0 0 0 3 21 0 1 1 4 4 0 9 5 3 1 0 0 0 0 0 0 0 0 0 0 0 0 0
1 40 45 29 20 26 16 0 0 0 0 0 0 0 0 0 0 0 0 1 1 0 0 0 0 0 0 0 0 17 1 0 0 0 10 0 16 11 19 18 1 0 0 0 0 0 0 0 0 0 0 0 0 0
2 40 29 24 24 17 5 0 0 0 0 0 0 0 0 0 0 0 0 0 0 0 0 0 0 0 0 0 0 50 0 0 0 0 10 0 1 7 10 10 8 1 0 0 0 0 0 0 0 0 0 0 0 0
2 17 29 28 31 17 9 1 0 0 0 0 0 0 0 0 0 0 0 0 0 0 0 0 0 0 3 0 0 11 14 3 0 0 0 0 0 0 0 0 0 0 0 0 0 0 0 0 0 0 0 0 0 0
9 14 6 31 25 21 27 2 0 0 0 0 0 0 0 0 0 0 0 0 0 0 0 10 0 3 3 53 0 4 10 2 0 0 0 0 0 0 0 0 0 0 0 0 0 0 0 0 0 0 0 0 0 0
0 1 32 31 27 48 9 0 0 0 0 0 0 0 0 0 0 0 0 0 0 0 0 0 0 0 9 7 1 0 0 0 0 0 0 0 0 0 0 0 0 0 0 0 0 0 0 0 0 0 0 0 0 0
3 18 39 36 20 4 1 2 0 0 0 0 0 0 0 0 0 0 0 0 0 0 0 0 0 3 0 0 0 0 0 0 0 0 0 0 0 0 0 0 0 0 0 0 0 0 0 0 0 0 0 0 0 0
6 19 35 17 0 0 0 0 0 0 0 0 0 0 0 0 0 0 0 0 0 0 0 0 0 0 0 0 0 0 0 0 0 0 0 0 0 0 0 0 0 0 0 0 0 0 0 0 0 0 0 0 0 0
25 21 18 0 0 0 0 0 0 0 0 0 0 0 0 0 0 0 0 0 0 0 0 0 0 0 0 0 0 0 0 0 0 0 0 0 0 0 0 0 0 0 0 0 0 0 0 0 0 0 0 0 0 0
13 13 14 0 0 0 0 1 0 0 0 0 0 0 0 0 0 0 0 0 0 0 0 0 0 0 0 0 0 0 0 0 0 0 0 0 0 0 0 0 0 0 0 0 0 0 0 0 0 0 0 0 0 0
1 4 0 0 0 0 0 0 0 0 0 0 0 0 0 0 0 0 0 0 0 0 0 0 0 0 0 0 0 0 0 0 0 0 0 0 0 0 0 0 0 0 0 0 0 0 0 0 0 0 0 0 0 0
3 0 0 0 0 0 0 0 0 0 0 0 0 0 0 0 0 0 0 0 0 0 0 0 0 0 0 0 0 0 0 0 0 0 0 0 0 0 0 0 0 0 0 0 0 0 0 0 0 0 0 0 0 0
0 0 0 0 0 0 0 0 0 0 0 0 0 0 0 0 0 0 0 0 0 0 0 0 0 0 0 0 0 0 0 0 0 0 0 0 0 0 0 0 0 0 0 0 0 0 0 0 0 0 0 0 0 0
0 0 0 0 0 0 0 0 0 0 0 0 0 0 0 0 0 0 0 0 0 0 0 0 0 0 0 0 0 0 0 0 0 0 0 0 0 0 0 0 0 0 0 0 0 0 0 0 0 0 0 0 0 0
0 0 0 0 0 0 0 0 0 0 0 0 0 0 0 0 0 0 0 0 0 0 0 0 0 0 0 0 0 0 0 0 0 0 0 0 0 0 0 0 0 0 0 0 0 0 0 0 0 0 0 0 0 0
0 0 0 0 0 0 0 0 0 0 0 0 0 0 0 1 0 0 0 0 0 0 0 0 0 0 0 0 0 0 0 0 0 0 0 0 0 0 0 0 0 0 0 0 0 0 0 0 0 0 0 0 0 0
0 0 0 0 0 0 0 0 0 0 0 0 0 0 0 0 0 0 0 0 0 0 0 0 0 0 0 0 0 0 0 0 0 0 0 0 0 0 0 0 0 0 0 0 0 0 0 0 0 0 0 0 0 0
0 0 0 0 0 0 0 0 0 0 0 0 0 0 0 0 0 0 0 0 0 0 0 0 0 0 0 0 0 0 0 0 0 0 0 0 0 0 0 0 0 0 0 0 0 0 0 0 0 0 0 0 0 0
0 0 0 0 0 0 0 0 0 0 0 0 0 0 0 0 0 0 0 0 0 0 0 0 0 0 0 0 0 0 0 0 0 0 0 0 0 0 0 0 0 0 0 0 0 0 0 0 0 0 0 0 0 0
0 0 0 0 0 0 0 0 0 0 0 0 0 0 0 0 0 0 0 0 0 0 0 0 0 0 0 0 0 0 0 0 0 0 0 0 0 0 0 0 0 0 0 0 0 0 0 0 0 0 0 0 0 0
0 0 0 0 0 0 0 1 0 1 0 0 0 0 0 1 0 0 0 0 0 0 0 0 0 0 0 0 0 0 0 0 0 0 0 0 0 0 0 0 0 0 0 0 0 0 0 0 0 0 0 0 0 0
0 0 0 0 0 0 0 0 0 0 0 0 0 0 0 0 0 0 0 0 0 0 0 0 0 0 0 0 0 0 0 0 0 0 0 0 0 0 0 0 0 0 0 0 0 0 0 0 0 0 0 0 0 0
CIN
0 0 -2 -11 -6 -5 0 0 -1 -8 -11 -15 -6 0 0 0 0 0 0 0 0 0 0 0 0 0 0 0 0 0 0 0 0 -1 -7 -3 0 0 0 0 0 0 0 0 0 0 0 0 0 0 0 0 0 0
0 0 -2 -11 -6 -10 0 0 -3 -8 -15 -13 -6 -4 -1 0 0 0 0 0 0 0 0 0 0 0 0 0 0 0 0 -2 0 -2 0 0 0 0 0 0 0 0 -2 -24 0 0 0 0 0 0 0 0 0 0
0 -4 -3 -9 -6 -5 0 -1 -2 -8 -11 -11 -3 0 0 0 0 0 0 0 0 0 0 0 0 0 0 0 0 0 0 -10 -8 0 0 0 0 0 -3 -1 0 0 0 0 0 0 0 0 0 0 0 0 0 0
0 0 -4 -8 -12 -2 0 0 0 -5 -10 -9 -1 0 0 0 0 0 0 0 0 0 0 0 0 0 0 0 0 0 0 0 0 -4 -4 0 0 0 0 0 -2 0 0 0 0 0 0 0 0 0 0 0 0 0
0 0 -21 -11 -9 -4 0 -4 -3 -1 -11 -7 -1 0 0 0 0 0 0 0 0 0 0 0 0 0 0 0 0 0 0 0 0 -1 -1 0 -2 -2 0 0 0 0 -1 -8 -2 0 0 0 0 0 0 0 0 0
-9 0 -1 -7 -9 -3 0 -2 0 -3 -13 -7 0 0 0 0 0 0 0 0 0 0 0 0 0 0 0 0 0 0 0 0 0 -3 0 -6 -7 -3 -6 0 0 0 0 -2 0 0 0 0 0 0 0 0 0 0
-5 -9 -4 -2 -2 -6 -1 0 0 -1 -11 -2 0 0 0 0 0 0 0 0 0 0 0 0 0 0 0 0 0 0 0 0 0 -6 0 0 -7 -12 0 -1 0 0 -28 0 0 0 0 0 0 0 0 0 0 0
-7 -1 -12 -8 -2 0 0 0 0 -6 -2 0 0 0 -2 0 0 0 0 0 0 0 0 0 0 0 0 0 0 0 0 0 -2 -2 -11 -2 -10 -10 -3 0 0 0 0 0 0 0 0 0 0 0 0 0 0 0
-1 -6 0 -1 -2 -8 0 0 -1 0 0 0 0 0 0 0 0 0 -11 -21 0 0 0 0 0 0 0 0 0 0 0 0 0 0 0 -11 -10 -6 0 0 0 0 0 0 0 -77 0 0 0 0 0 0 0 0
-7 -6 0 0 -6 -1 0 0 0 0 0 0 0 0 0 0 0 0 0 0 0 0 0 0 0 0 0 0 0 0 0 0 0 0 0 -7 0 0 0 0 0 0 0 0 -12 -158 -4 -2 0 0 0 0 0 0
-5 -7 -1 0 0 0 0 0 0 0 0 0 0 0 0 0 0 0 0 0 0 0 -7 0 0 0 0 0 0 0 0 0 -2 0 0 -3 -2 0 -2 0 0 0 0 0 0 0 0 0 0 0 0 0 0 0
-5 -2 0 0 0 0 0 0 0 0 0 0 0 0 0 0 0 0 0 0 -1 0 0 0 0 0 0 0 0 -11 -3 0 -4 0 -3 -4 0 -4 -14 0 -1 0 0 0 0 0 0 0 0 0 0 0 0 0
-17 -1 0 0 0 0 0 0 0 0 0 0 0 0 0 0 0 0 0 0 0 0 0 0 0 0 0 0 0 -37 0 0 0 0 -19 0 0 0 0 0 0 0 0 0 0 0 0 0 0 0 0 0 0 0
-1 0 0 0 0 0 0 0 0 0 0 0 0 0 0 0 0 0 0 0 0 0 0 0 0 0 0 -5 -2 -6 0 0 0 -2 -8 0 0 0 0 0 0 0 0 0 0 0 0 0 0 0 0 0 0 0
0 -1 0 0 0 0 -4 -7 0 0 0 0 0 0 0 0 0 0 0 0 0 0 0 0 0 0 -12 0 0 -36 -22 -20 0 0 0 0 0 0 0 0 0 0 0 0 0 0 0 0 0 0 0 0 0 0
0 -2 -1 0 0 0 -5 -12 0 0 0 0 0 0 0 0 0 0 0 0 0 0 0 0 0 -13 -20 -5 0 -11 -21 -7 0 0 0 0 0 0 0 0 0 0 0 0 0 0 0 0 0 0 0 0 0 0
0 0 0 0 0 0 -10 0 0 0 0 0 0 0 0 0 0 0 0 0 0 0 0 0 0 0 -38 -32 -7 -5 0 0 0 0 0 0 0 0 0 0 0 0 0 0 0 0 0 0 0 0 0 0 0 0
0 0 0 0 0 0 0 0 0 0 0 0 0 0 0 0 0 0 0 0 0 0 0 -3 0 -2 0 -25 0 0 0 0 0 0 0 0 0 0 0 0 0 0 0 0 0 0 0 0 0 0 0 0 0 0
0 0 0 0 0 0 0 0 0 0 0 0 0 0 0 0 0 0 0 0 0 0 0 0 0 0 0 0 0 0 0 0 0 0 0 0 0 0 0 0 0 0 0 0 0 0 0 0 0 0 0 0 0 0
0 0 0 -1 0 0 0 0 0 0 0 0 0 0 0 0 0 0 0 0 0 0 0 -3 0 0 0 0 0 0 0 0 0 0 0 0 0 0 0 0 0 0 0 0 0 0 0 0 0 0 0 0 0 0
0 0 0 0 0 0 0 0 0 0 0 0 0 0 0 0 0 0 0 0 0 0 0 0 0 0 0 0 0 0 0 0 0 0 0 0 0 0 0 0 0 0 0 0 0 0 0 0 0 0 0 0 0 0
0 0 0 0 0 0 0 0 0 0 0 0 0 0 0 0 0 0 0 0 0 0 0 0 0 0 0 0 0 0 0 0 0 0 0 0 0 0 0 0 0 0 0 0 0 0 0 0 0 0 0 0 0 0
0 0 0 0 0 0 0 0 0 0 0 0 0 0 0 0 0 0 0 0 0 0 0 0 0 0 0 0 0 0 0 0 0 0 0 0 0 0 0 0 0 0 0 0 0 0 0 0 0 0 0 0 0 0
0 0 0 0 0 0 0 0 0 0 0 0 0 0 0 0 0 0 0 0 0 0 0 0 0 0 0 0 0 0 0 0 0 0 0 0 0 0 0 0 0 0 0 0 0 0 0 0 0 0 0 0 0 0
0 0 0 0 0 0 0 0 0 0 0 0 0 0 0 0 0 0 0 0 0 0 0 0 0 0 0 0 0 0 0 0 0 0 0 0 0 0 0 0 0 0 0 0 0 0 0 0 0 0 0 0 0 0
0 0 0 0 0 0 0 0 0 0 0 0 0 0 0 0 0 0 0 0 0 0 0 0 0 0 0 0 0 0 0 0 0 0 0 0 0 0 0 0 0 0 0 0 0 0 0 0 0 0 0 0 0 0
0 0 0 0 0 0 0 0 0 0 0 0 0 0 0 -6 0 0 0 0 0 0 0 0 0 0 0 0 0 0 0 0 0 0 0 0 0 0 0 0 0 0 0 0 0 0 0 0 0 0 0 0 0 0
0 0 0 0 0 0 0 0 0 0 0 0 0 0 0 0 0 0 0 0 0 0 0 0 0 0 0 0 0 0 0 0 0 0 0 0 0 0 0 0 0 0 0 0 0 0 0 0 0 0 0 0 0 0
0 0 0 0 0 0 0 0 0 0 0 0 0 0 0 0 0 0 0 0 0 0 0 0 0 0 0 0 0 0 0 0 0 0 0 0 0 0 0 0 0 0 0 0 0 0 0 0 0 0 0 0 0 0
0 0 0 0 0 0 0 0 0 0 0 0 0 0 0 0 0 0 0 0 0 0 0 0 0 0 0 0 0 0 0 0 0 0 0 0 0 0 0 0 0 0 0 0 0 0 0 0 0 0 0 0 0 0
0 0 0 0 0 0 0 0 0 0 0 0 0 0 0 0 0 0 0 0 0 0 0 0 0 0 0 0 0 0 0 0 0 0 0 0 0 0 0 0 0 0 0 0 0 0 0 0 0 0 0 0 0 0
0 0 0 0 0 0 0 0 0 0 0 0 0 0 0 0 0 0 0 0 0 0 0 0 0 0 0 0 0 0 -1 0 0 0 0 0 0 0 0 0 0 0 0 0 0 0 0 0 0 0 0 0 0 0
0 0 0 0 0 0 0 0 0 0 0 0 0 0 0 0 0 0 0 0 0 0 0 0 0 0 0 0 0 0 0 0 0 0 0 0 0 0 0 0 0 0 0 0 0 0 0 0 0 0 0 0 0 0
Wind_Speed
10 10 11 15 20 20 26 28 30 28 26 24 22 21 19 17 14 5 1 0 4 3 4 2 1 2 1 1 3 3 4 3 3 1 1 3 4 4 3 4 4 8 8 5 2 3 8 5 2 8 9 2 2 6
5 11 12 12 19 17 24 29 31 29 26 24 23 21 20 19 16 7 3 1 2 4 4 2 3 3 5 4 4 3 1 2 1 1 2 2 2 1 3 4 5 5 3 5 10 9 7 4 4 5 5 4 5 6
8 7 13 12 16 16 22 31 30 29 26 25 23 22 21 20 17 7 3 3 4 3 4 2 6 6 3 6 5 4 3 4 4 1 1 1 4 4 3 4 4 5 5 5 1 4 7 6 5 5 4 4 4 5
11 10 10 13 17 20 20 27 27 26 26 25 23 22 21 20 17 8 4 2 4 3 1 6 3 5 2 4 6 6 3 4 4 1 2 2 2 2 3 4 2 4 7 8 12 6 9 3 1 5 6 1 4 6
13 12 11 16 17 21 26 28 27 27 27 26 24 22 21 20 16 7 3 2 2 5 3 4 6 7 6 7 8 7 6 4 2 2 3 3 3 2 3 3 5 4 3 5 5 3 4 8 9 11 7 5 6 11
14 12 12 21 19 15 32 30 28 26 27 26 24 22 21 21 15 5 4 2 2 3 3 4 4 5 2 5 7 8 8 4 4 4 3 4 4 2 4 5 6 11 7 4 4 9 8 12 12 5 5 4 6 6
14 13 11 16 20 22 22 23 27 27 27 25 24 22 22 20 5 4 5 4 7 3 3 4 5 4 2 2 1 2 4 4 4 4 4 4 4 6 4 10 4 9 10 7 8 10 11 7 7 11 9 3 7 8
13 14 14 12 20 27 31 29 29 28 27 26 24 25 21 17 11 4 3 9 5 4 2 1 5 5 3 1 2 2 3 3 3 4 3 4 2 4 7 15 10 16 15 17 17 13 12 11 15 12 5 4 5 8
12 14 11 14 18 29 31 32 31 30 29 28 28 24 7 4 3 2 7 9 3 4 3 3 3 4 3 2 1 2 1 3 3 6 5 5 4 9 10 5 13 15 10 12 6 6 10 7 12 11 6 6 5 8
12 11 11 26 30 32 32 33 33 33 34 33 11 6 3 2 10 10 5 3 3 1 3 4 2 4 2 1 2 2 2 4 4 7 3 5 12 15 12 12 11 12 14 10 10 12 10 8 6 2 7 9 8 9
4 10 4 31 35 35 36 36 38 38 28 4 4 4 2 9 4 3 3 2 2 2 3 4 6 5 2 2 3 2 2 2 4 5 7 4 4 6 6 8 12 18 21 21 18 15 8 8 9 6 6 4 6 9
4 9 16 28 36 38 39 41 39 10 5 8 11 7 3 3 3 4 3 2 4 4 3 3 4 4 3 3 3 3 4 1 6 3 4 4 2 3 6 8 9 13 6 8 11 15 15 11 9 8 7 7 8 10
9 8 23 32 37 39 41 38 22 28 25 5 6 5 3 2 4 8 8 5 5 4 5 4 2 3 1 1 3 3 4 6 2 3 3 1 4 5 7 8 8 6 7 7 8 8 8 8 9 7 9 7 10 13
7 13 32 35 37 40 39 30 36 18 6 5 5 7 5 5 7 7 6 5 5 4 4 4 1 4 3 3 4 4 5 0 4 2 2 5 10 12 11 6 6 9 8 7 7 7 8 9 11 11 8 8 10 13
7 26 34 36 38 39 32 36 16 5 4 4 5 7 8 4 2 3 3 2 4 3 4 2 1 4 3 4 4 1 1 4 2 2 4 4 7 8 8 8 10 8 8 8 8 7 9 9 9 12 8 7 10 11
11 29 16 37 39 33 32 12 6 4 3 3 2 3 1 4 2 2 3 5 4 4 4 2 3 3 4 4 3 7 3 4 4 4 3 3 5 7 6 7 7 8 7 6 6 6 8 9 10 11 7 5 8 14
16 2 35 39 34 31 21 7 4 3 2 3 1 1 3 2 4 4 4 4 3 4 3 3 5 7 3 4 4 2 3 4 5 4 3 3 5 8 8 7 7 6 7 7 6 5 6 8 9 5 0 2 5 8
2 19 36 36 26 13 4 3 3 4 3 3 3 3 3 2 3 3 3 3 4 3 3 5 2 2 3 4 3 5 6 4 3 5 5 5 5 7 6 8 6 5 6 6 6 6 5 6 6 4 4 5 7 9
14 23 37 32 12 7 4 2 2 4 2 2 1 2 2 2 3 2 2 2 2 2 3 2 3 4 4 4 4 3 3 3 3 4 5 6 6 7 7 7 8 6 5 4 4 4 4 5 4 3 4 4 6 6
32 39 34 25 10 4 4 2 2 3 3 3 2 3 3 3 3 3 3 3 3 2 2 4 5 4 5 4 4 4 3 3 3 4 7 5 5 6 7 6 6 5 4 5 4 3 3 1 1 2 4 6 7 8
29 23 28 9 3 3 4 4 3 4 3 3 3 4 2 1 2 4 4 4 2 4 4 5 4 5 6 5 4 3 5 5 6 6 9 10 7 5 6 7 5 2 4 4 4 4 4 3 3 4 4 5 5 6
9 16 5 3 4 2 3 2 3 3 3 2 2 2 2 1 3 4 3 3 4 5 5 5 6 5 5 6 8 6 8 7 8 6 7 5 8 8 7 7 3 6 6 6 5 6 5 4 4 4 6 7 9 9
16 5 4 4 4 3 1 2 3 2 4 2 1 2 2 3 4 2 2 3 4 6 7 8 8 8 9 8 4 7 7 8 9 9 8 8 8 8 8 8 7 8 7 5 5 5 5 5 5 7 8 9 10 10
10 5 4 4 3 3 2 1 1 3 2 2 3 2 3 4 1 0 4 4 6 3 4 8 6 3 2 4 4 5 7 5 8 8 7 8 8 9 8 8 7 8 7 4 6 7 7 7 9 9 9 11 11 12
7 1 5 2 1 5 4 2 1 3 3 3 2 4 5 2 2 3 5 6 4 6 6 3 4 5 5 5 4 8 8 5 6 8 12 6 9 8 6 6 7 7 6 7 7 8 8 8 9 9 11 12 14 15
5 3 6 6 2 5 5 5 5 6 4 3 5 3 1 2 2 6 5 5 4 4 5 6 7 4 6 8 8 7 7 4 4 7 12 6 7 7 9 8 5 3 4 6 7 9 10 11 10 13 11 12 15 15
4 4 2 2 3 4 3 2 2 4 4 6 4 2 3 3 7 6 3 4 4 5 5 5 7 9 9 7 5 6 5 4 7 8 8 4 4 5 6 5 5 3 5 7 8 10 12 12 12 12 11 11 12 14
3 4 7 4 2 2 5 2 5 7 5 3 4 4 7 9 8 6 6 4 5 5 5 6 7 7 7 8 5 4 3 2 4 4 2 2 1 1 3 2 2 8 6 7 8 8 9 11 12 13 14 13 11 11
2 1 5 3 2 1 5 7 6 5 4 5 6 5 7 6 5 5 7 5 4 3 5 7 8 5 6 5 4 5 4 4 6 10 9 7 2 2 1 3 4 5 6 7 10 10 12 11 12 12 13 11 11 12
3 3 5 2 6 7 7 7 5 3 2 3 2 4 4 5 7 5 4 6 6 9 10 9 8 4 7 6 7 4 5 7 8 8 5 5 4 4 5 6 6 6 7 9 10 11 15 13 15 13 13 12 12 12
4 3 4 2 5 5 5 3 2 1 1 4 4 6 7 6 6 6 11 12 11 8 2 6 6 4 5 6 6 6 8 4 7 6 4 2 5 6 6 7 7 7 9 11 11 11 12 11 11 13 14 15 15 14
2 4 5 2 4 3 1 1 2 3 3 4 5 3 3 3 6 6 2 2 3 1 3 3 3 5 6 6 3 4 4 1 5 5 7 5 6 7 8 8 8 8 10 11 11 11 13 13 11 13 14 16 15 15
3 2 3 3 4 3 4 2 4 5 3 3 5 5 5 4 7 5 3 3 2 2 3 4 4 4 4 4 3 3 3 3 6 7 8 9 12 11 8 8 8 10 12 11 11 12 14 16 13 14 15 15 14 14
Wind_Direction
235 227 223 215 188 196 187 180 177 174 172 168 166 163 162 158 151 107 155 155 120 148 264 224 144 126 40 58 133 278 30 2 358 238 197 219 245 262 283 291 228 184 164 192 99 153 264 191 79 167 211 190 191 177
279 229 222 214 189 193 192 180 174 170 168 165 162 161 161 158 156 118 104 308 115 110 221 284 264 230 169 170 131 349 139 23 321 303 30 322 288 273 269 259 322 260 207 224 184 209 227 241 246 205 165 184 209 171
307 273 218 213 193 176 180 172 171 166 163 158 159 159 160 159 159 120 127 144 65 67 321 22 250 277 218 201 166 131 288 189 134 120 146 317 273 328 246 244 274 241 43 286 49 247 255 266 303 284 202 219 186 155
294 290 237 205 179 170 183 166 160 160 157 154 155 157 157 158 147 112 116 162 93 103 97 284 306 283 210 156 177 200 175 30 83 145 152 219 251 210 272 305 287 289 352 329 299 312 338 268 221 360 310 213 139 139
272 273 246 186 179 178 175 162 159 159 153 150 150 154 156 154 135 96 97 147 113 122 197 272 302 257 220 174 182 181 187 150 150 227 215 216 251 276 256 272 239 222 280 194 276 247 244 281 312 309 285 240 208 149
247 241 195 154 149 154 187 159 157 155 147 147 148 151 152 142 124 89 27 330 165 118 73 325 279 281 300 190 182 187 190 165 173 174 207 224 215 204 258 250 243 237 250 204 250 295 264 286 284 283 284 228 175 171
211 200 176 187 180 164 162 151 152 148 142 143 143 144 135 133 88 118 175 192 158 94 103 301 298 274 297 171 164 148 154 190 161 198 213 226 226 192 243 242 252 254 244 224 271 310 305 309 291 321 301 241 150 125
186 190 167 187 189 173 161 154 146 141 139 136 134 129 123 110 105 55 5 113 104 94 94 193 273 328 359 349 312 186 159 155 233 191 205 208 225 202 253 241 239 256 273 285 272 273 254 273 289 297 274 144 152 152
184 179 186 192 168 151 148 145 141 137 133 129 122 113 79 53 92 184 120 106 74 122 165 194 217 256 348 319 199 26 144 171 232 198 213 182 204 224 242 207 242 264 252 270 323 278 275 248 246 237 199 188 185 183
206 190 260 187 164 151 148 138 134 130 125 121 103 72 104 219 134 115 14 54 25 297 209 235 198 249 104 340 312 42 193 237 198 225 154 204 242 252 263 260 251 254 263 274 284 278 273 257 275 294 208 222 185 169
193 174 220 154 153 148 140 136 132 128 125 80 96 84 226 150 66 50 106 131 277 283 218 236 203 222 232 113 236 195 245 244 242 231 181 226 250 240 265 294 294 274 258 255 258 260 255 263 283 282 286 232 191 168
286 160 177 157 144 140 138 137 137 113 134 139 112 108 102 75 78 114 180 233 204 240 216 201 225 194 248 180 152 245 239 313 253 188 206 229 241 42 357 318 323 355 319 265 257 263 271 267 264 262 248 217 187 167
316 192 160 146 142 140 139 142 121 123 120 87 70 97 115 123 114 184 190 198 211 200 212 195 208 188 265 224 246 168 225 236 328 231 238 57 336 337 313 316 333 355 5 15 360 343 328 319 314 263 245 218 171 158
303 189 152 147 144 144 144 135 140 134 88 90 118 134 177 186 216 194 188 182 218 195 171 156 150 180 190 167 225 204 229 322 303 280 23 334 325 304 292 298 317 333 345 349 336 329 323 317 310 301 262 193 166 161
281 151 149 149 147 147 143 146 135 60 90 115 120 187 194 192 196 190 167 171 230 196 138 83 325 145 203 251 225 271 349 247 226 171 235 217 255 287 311 334 341 332 330 325 323 317 310 312 308 298 290 202 170 155
225 145 144 147 147 143 143 114 59 66 52 103 141 109 114 118 230 189 186 237 210 179 110 179 192 169 199 238 211 215 219 207 248 221 231 274 291 306 320 326 325 319 299 285 294 301 304 311 311 296 282 188 163 159
105 16 152 147 142 135 110 70 66 60 162 154 213 100 139 173 174 189 180 223 148 124 189 173 176 205 191 196 232 186 165 235 231 257 241 234 270 300 304 287 263 308 302 306 312 315 306 309 308 325 69 67 139 151
48 145 144 137 125 97 53 49 100 123 163 181 168 182 190 190 159 208 219 185 153 194 145 213 124 230 217 211 208 225 213 230 239 253 259 258 252 260 263 286 291 278 279 295 304 303 300 322 325 332 85 102 101 117
154 144 140 133 121 100 108 111 106 141 183 166 159 150 176 216 221 204 188 230 209 165 136 165 199 206 220 224 225 231 233 219 241 254 259 266 253 256 267 275 279 280 288 287 298 298 293 292 258 161 131 124 127 142
148 141 142 144 114 89 103 96 143 122 171 203 167 177 197 201 192 185 189 184 160 159 190 211 220 218 198 226 198 220 219 207 199 278 282 276 240 261 263 259 267 262 285 272 232 232 280 330 124 151 159 146 146 150
131 147 137 112 67 75 98 147 164 192 156 176 187 171 209 143 194 206 229 163 166 197 224 218 222 243 223 243 224 216 242 189 216 213 263 283 285 249 273 279 257 205 241 267 273 277 244 212 194 174 150 143 135 124
109 119 90 38 79 60 87 198 139 149 120 188 140 149 126 164 235 216 179 170 221 220 196 209 225 227 251 256 258 209 246 242 245 248 255 257 272 272 269 252 215 256 237 240 237 233 214 189 161 145 133 127 124 125
112 91 66 65 88 47 32 69 95 157 123 227 84 61 259 239 231 111 228 220 235 222 211 220 226 223 242 262 254 259 238 247 267 262 251 245 249 253 251 251 230 239 247 238 210 211 181 156 144 137 133 134 133 133
84 79 118 134 123 147 122 174 67 110 74 94 140 252 234 224 96 67 240 237 236 232 210 223 211 226 261 239 236 244 261 225 258 266 249 248 256 258 238 242 233 229 229 215 183 189 164 159 148 147 150 148 148 146
96 121 104 27 318 100 95 97 110 77 172 200 136 291 267 138 165 228 228 261 238 235 239 174 182 196 215 240 249 249 231 191 249 260 262 217 242 258 258 231 220 220 175 158 172 174 159 149 157 155 162 159 155 153
96 168 151 169 195 128 166 132 173 180 151 176 229 250 49 116 178 242 230 233 237 223 212 202 204 199 243 234 248 267 268 181 196 243 267 248 236 240 259 265 254 236 178 169 164 164 157 160 160 159 159 159 151 145
120 190 187 221 134 113 61 43 136 118 153 198 232 158 117 205 240 249 262 229 214 225 209 209 196 213 228 244 228 236 240 186 210 253 272 261 240 232 238 243 228 206 170 165 165 163 161 159 156 155 147 144 151 151
169 144 147 189 99 123 135 120 155 191 214 197 104 180 195 200 225 233 216 234 218 240 231 233 227 230 237 243 239 251 257 215 255 258 258 273 306 250 219 190 161 154 152 153 148 148 153 153 151 147 145 145 142 144
142 181 105 73 71 94 186 182 208 224 195 156 176 226 239 229 232 244 258 229 220 203 245 255 258 225 243 243 242 249 235 213 222 234 231 243 253 248 148 116 117 115 121 123 130 137 143 141 141 139 136 132 126 124
236 152 96 93 145 209 231 180 220 252 224 192 221 310 289 267 246 241 251 258 248 244 244 244 254 208 239 232 261 265 222 222 216 223 223 235 234 143 135 127 119 117 118 118 116 115 115 114 113 114 118 121 123 123
127 106 84 147 207 246 233 236 280 213 215 243 242 243 260 294 297 237 238 250 255 255 229 255 253 215 223 226 229 251 265 224 207 216 211 121 128 135 128 123 122 122 122 123 124 126 128 127 128 128 127 126 128 127
116 144 140 147 288 293 96 207 231 232 238 225 249 223 286 323 279 283 274 57 40 341 264 258 239 250 218 237 208 205 226 227 170 154 139 133 133 127 124 122 122 124 124 123 124 127 125 127 129 127 125 128 130 132
95 101 48 70 21 335 299 63 338 307 317 275 264 199 195 206 248 266 286 229 219 249 271 259 249 244 244 228 193 162 136 123 125 124 130 134 130 130 126 126 127 128 126 127 131 130 129 129 128 130 130 131 131 134